When you browse on this site, cookies collect data to enhance your experience and personalize the content and advertising you see.
Visit our Privacy Policy to learn more. By continuing to use the site, you agree to this use of cookies and data.
  • In Deutschland
  • Länderverzeichnis
  • Für 7 Tage
  • Wassertemperatur
  • Wetterkarte
  • Widgets
  • user-avatar
    Anmelden

    Stündliche Wetter Laszkar Gah

    Heute, 17 September, Dienstag

    Zeit Temperatur Niederschläge Wind Luftdruck Luftfeuchtigkeit
    00:00 +23°C° 0 mm 2 m/S 689 mmHg 11%
    01:00 +21°C° 0 mm 2 m/S 688 mmHg 12%
    02:00 +21°C° 0 mm 2 m/S 688 mmHg 14%
    03:00 +20°C° 0 mm 3 m/S 688 mmHg 16%
    04:00 +19°C° 0 mm 3 m/S 689 mmHg 18%
    05:00 +20°C° 0 mm 3 m/S 689 mmHg 19%
    06:00 +20°C° 0 mm 3 m/S 690 mmHg 20%
    07:00 +21°C° 0 mm 2 m/S 691 mmHg 21%
    08:00 +25°C° 0 mm 2 m/S 691 mmHg 18%
    09:00 +27°C° 0 mm 2 m/S 691 mmHg 14%
    10:00 +30°C° 0 mm 1 m/S 692 mmHg 11%
    11:00 +32°C° 0 mm 1 m/S 692 mmHg 9%
    12:00 +34°C° 0 mm 1 m/S 691 mmHg 8%
    13:00 +36°C° 0 mm 1 m/S 691 mmHg 6%
    14:00 +36°C° 0 mm 1 m/S 691 mmHg 6%
    15:00 +38°C° 0 mm 2 m/S 690 mmHg 5%
    16:00 +38°C° 0 mm 2 m/S 691 mmHg 5%
    17:00 +35°C° 0 mm 2 m/S 690 mmHg 6%
    18:00 +31°C° 0 mm 3 m/S 690 mmHg 7%
    19:00 +28°C° 0 mm 3 m/S 690 mmHg 8%
    20:00 +27°C° 0 mm 3 m/S 690 mmHg 8%
    21:00 +25°C° 0 mm 2 m/S 690 mmHg 9%
    22:00 +24°C° 0 mm 2 m/S 689 mmHg 10%
    23:00 +23°C° 0 mm 1 m/S 689 mmHg 10%

    Morgen, 18 September, Mittwoch

    Zeit Temperatur Niederschläge Wind Luftdruck Luftfeuchtigkeit
    00:00 +21°C° 0 mm 1 m/S 689 mmHg 11%
    01:00 +18°C° 0 mm 0 m/S 689 mmHg 12%
    02:00 +20°C° 0 mm 1 m/S 689 mmHg 12%
    03:00 +20°C° 0 mm 1 m/S 689 mmHg 12%
    04:00 +20°C° 0 mm 1 m/S 689 mmHg 13%
    05:00 +21°C° 0 mm 2 m/S 690 mmHg 12%
    06:00 +24°C° 0 mm 2 m/S 691 mmHg 11%
    07:00 +26°C° 0 mm 2 m/S 693 mmHg 10%
    08:00 +28°C° 0 mm 2 m/S 693 mmHg 9%
    09:00 +30°C° 0 mm 2 m/S 693 mmHg 7%
    10:00 +34°C° 0 mm 2 m/S 694 mmHg 6%
    11:00 +35°C° 0 mm 2 m/S 694 mmHg 6%
    12:00 +37°C° 0 mm 2 m/S 693 mmHg 5%
    13:00 +39°C° 0 mm 3 m/S 693 mmHg 4%
    14:00 +39°C° 0 mm 3 m/S 693 mmHg 4%
    15:00 +39°C° 0 mm 3 m/S 693 mmHg 4%
    16:00 +40°C° 0 mm 3 m/S 693 mmHg 4%
    17:00 +36°C° 0 mm 2 m/S 692 mmHg 5%
    18:00 +31°C° 0 mm 2 m/S 692 mmHg 6%
    19:00 +28°C° 0 mm 2 m/S 691 mmHg 7%
    20:00 +27°C° 0 mm 2 m/S 691 mmHg 8%
    21:00 +26°C° 0 mm 2 m/S 691 mmHg 8%
    22:00 +25°C° 0 mm 2 m/S 691 mmHg 8%
    23:00 +24°C° 0 mm 2 m/S 691 mmHg 8%

    übermorgen, 19 September, Donnerstag

    Zeit Temperatur Niederschläge Wind Luftdruck Luftfeuchtigkeit
    00:00 +23°C° 0 mm 1 m/S 690 mmHg 9%
    01:00 +22°C° 0 mm 1 m/S 690 mmHg 10%
    02:00 +22°C° 0 mm 1 m/S 690 mmHg 10%
    03:00 +21°C° 0 mm 1 m/S 690 mmHg 10%
    04:00 +21°C° 0 mm 1 m/S 690 mmHg 10%
    05:00 +23°C° 0 mm 1 m/S 691 mmHg 9%
    06:00 +25°C° 0 mm 1 m/S 692 mmHg 8%
    07:00 +28°C° 0 mm 1 m/S 693 mmHg 7%
    08:00 +30°C° 0 mm 1 m/S 693 mmHg 6%
    09:00 +33°C° 0 mm 1 m/S 693 mmHg 5%
    10:00 +35°C° 0 mm 1 m/S 694 mmHg 4%
    11:00 +38°C° 0 mm 2 m/S 693 mmHg 3%
    12:00 +39°C° 0 mm 2 m/S 693 mmHg 3%
    13:00 +41°C° 0 mm 2 m/S 693 mmHg 2%
    14:00 +42°C° 0 mm 3 m/S 692 mmHg 2%
    15:00 +42°C° 0 mm 3 m/S 692 mmHg 2%
    16:00 +42°C° 0 mm 4 m/S 691 mmHg 2%
    17:00 +38°C° 0 mm 4 m/S 691 mmHg 3%
    18:00 +34°C° 0 mm 4 m/S 691 mmHg 4%
    19:00 +30°C° 0 mm 3 m/S 690 mmHg 4%
    20:00 +29°C° 0 mm 3 m/S 690 mmHg 5%
    21:00 +27°C° 0 mm 2 m/S 690 mmHg 6%
    22:00 +25°C° 0 mm 2 m/S 690 mmHg 6%
    23:00 +25°C° 0 mm 1 m/S 689 mmHg 7%

    20 September, Freitag

    Zeit Temperatur Niederschläge Wind Luftdruck Luftfeuchtigkeit
    00:00 +24°C° 0 mm 1 m/S 689 mmHg 7%
    01:00 +23°C° 0 mm 1 m/S 689 mmHg 7%
    02:00 +22°C° 0 mm 1 m/S 689 mmHg 8%
    03:00 +22°C° 0 mm 1 m/S 688 mmHg 9%
    04:00 +21°C° 0 mm 1 m/S 688 mmHg 9%
    05:00 +24°C° 0 mm 1 m/S 689 mmHg 9%
    06:00 +26°C° 0 mm 2 m/S 690 mmHg 9%
    07:00 +28°C° 0 mm 2 m/S 691 mmHg 9%
    08:00 +30°C° 0 mm 2 m/S 691 mmHg 7%
    09:00 +34°C° 0 mm 2 m/S 692 mmHg 6%
    10:00 +36°C° 0 mm 3 m/S 692 mmHg 4%
    11:00 +38°C° 0 mm 2 m/S 692 mmHg 4%
    12:00 +39°C° 0 mm 2 m/S 691 mmHg 4%
    13:00 +40°C° 0 mm 2 m/S 691 mmHg 3%
    14:00 +40°C° 0 mm 2 m/S 690 mmHg 3%
    15:00 +41°C° 0 mm 2 m/S 690 mmHg 3%
    16:00 +41°C° 0 mm 2 m/S 690 mmHg 4%
    17:00 +36°C° 0 mm 1 m/S 689 mmHg 5%
    18:00 +32°C° 0 mm 1 m/S 689 mmHg 6%
    19:00 +28°C° 0 mm 1 m/S 688 mmHg 8%
    20:00 +28°C° 0 mm 1 m/S 688 mmHg 8%
    21:00 +28°C° 0 mm 1 m/S 689 mmHg 8%
    22:00 +27°C° 0 mm 1 m/S 689 mmHg 8%
    23:00 +27°C° 0 mm 2 m/S 689 mmHg 9%

    21 September, Samstag

    Zeit Temperatur Niederschläge Wind Luftdruck Luftfeuchtigkeit
    00:00 +26°C° 0 mm 2 m/S 688 mmHg 10%
    01:00 +26°C° 0 mm 2 m/S 688 mmHg 10%
    02:00 +25°C° 0 mm 2 m/S 688 mmHg 11%
    03:00 +25°C° 0 mm 3 m/S 688 mmHg 11%
    04:00 +25°C° 0 mm 3 m/S 688 mmHg 11%
    05:00 +26°C° 0 mm 3 m/S 689 mmHg 10%
    06:00 +28°C° 0 mm 3 m/S 690 mmHg 10%
    07:00 +29°C° 0 mm 3 m/S 690 mmHg 9%
    08:00 +31°C° 0 mm 3 m/S 691 mmHg 8%
    09:00 +35°C° 0 mm 2 m/S 691 mmHg 6%
    10:00 +38°C° 0 mm 2 m/S 692 mmHg 5%
    11:00 +39°C° 0 mm 2 m/S 691 mmHg 5%
    12:00 +40°C° 0 mm 2 m/S 691 mmHg 5%
    13:00 +41°C° 0 mm 2 m/S 691 mmHg 5%
    14:00 +41°C° 0 mm 2 m/S 690 mmHg 4%
    15:00 +42°C° 0 mm 2 m/S 690 mmHg 4%
    16:00 +42°C° 0 mm 2 m/S 690 mmHg 4%
    17:00 +38°C° 0 mm 2 m/S 690 mmHg 6%
    18:00 +34°C° 0 mm 2 m/S 689 mmHg 8%
    19:00 +29°C° 0 mm 1 m/S 689 mmHg 9%
    20:00 +29°C° 0 mm 1 m/S 689 mmHg 9%
    21:00 +28°C° 0 mm 2 m/S 689 mmHg 9%
    22:00 +28°C° 0 mm 2 m/S 689 mmHg 9%
    23:00 +27°C° 0 mm 2 m/S 689 mmHg 10%

    22 September, Sonntag

    Zeit Temperatur Niederschläge Wind Luftdruck Luftfeuchtigkeit
    00:00 +26°C° 0 mm 2 m/S 689 mmHg 11%
    01:00 +25°C° 0 mm 1 m/S 689 mmHg 11%
    02:00 +25°C° 0 mm 1 m/S 689 mmHg 12%
    03:00 +25°C° 0 mm 1 m/S 688 mmHg 12%
    04:00 +24°C° 0 mm 2 m/S 688 mmHg 12%
    05:00 +26°C° 0 mm 2 m/S 689 mmHg 11%
    06:00 +28°C° 0 mm 2 m/S 690 mmHg 10%
    07:00 +30°C° 0 mm 2 m/S 691 mmHg 9%
    08:00 +34°C° 0 mm 2 m/S 692 mmHg 8%
    09:00 +36°C° 0 mm 2 m/S 692 mmHg 7%
    10:00 +39°C° 0 mm 2 m/S 693 mmHg 6%
    11:00 +40°C° 0 mm 2 m/S 692 mmHg 5%
    12:00 +41°C° 0 mm 2 m/S 692 mmHg 5%
    13:00 +42°C° 0 mm 2 m/S 692 mmHg 5%
    14:00 +42°C° 0 mm 2 m/S 691 mmHg 4%
    15:00 +42°C° 0 mm 2 m/S 691 mmHg 4%
    16:00 +43°C° 0 mm 3 m/S 691 mmHg 4%
    17:00 +39°C° 0 mm 2 m/S 690 mmHg 5%
    18:00 +35°C° 0 mm 2 m/S 690 mmHg 6%
    19:00 +31°C° 0 mm 2 m/S 689 mmHg 8%
    20:00 +30°C° 0 mm 2 m/S 689 mmHg 8%
    21:00 +30°C° 0 mm 2 m/S 689 mmHg 8%
    22:00 +29°C° 0 mm 3 m/S 689 mmHg 8%
    23:00 +28°C° 0 mm 2 m/S 689 mmHg 9%
    Mehr zeigen